Location: Shenandoah County Park
(38.9356°N, 78.4524°W)
Time: 05:42:07
(UTC-04:00)

Explorer 11/Cluster Stage 4 - Pass Details

Date: 25 February 2024
Orbit: 465 x 1220 km, 28.8° (Epoch: 12 April)

Event Time Altitude Azimuth Distance (km) Brightness Sun altitude
Rises 04:50:53 0° 262° (W) 3,949 - -24.4°
Reaches altitude 10° 04:54:18 10° 251° (WSW) 2,883 - -23.7°
Exits shadow 04:59:13 26° 209° (SSW) 1,794 8.1 -22.8°
Maximum altitude 04:59:59 27° 197° (SSW) 1,743 8.1 -22.6°
Drops below altitude 10° 05:04:52 10° 142° (SE) 2,437 9.5 -21.7°
Sets 05:07:31 0° 129° (SE) 3,236 10.4 -21.2°
